#timestamp,LO_Frequency,Hit,StdDev 
1691474415.1,286047002.4,N
1691474416.0,286047002.4,N
1691474435.8,286046997.0,N
1691474455.7,286046994.5,N
1691474475.5,286046992.1,N
1691474495.3,286046990.3,N
1691474515.2,286046991.5,N
1691474535.0,286046996.5,N
1691474535.9,286046996.5,N
1691474555.8,286047001.7,N
1691474575.6,286046999.6,N
1691474595.4,286046996.1,N
1691474615.3,286047000.6,N
1691474635.1,286047007.3,N
1691474655.8,286047004.9,N
1691474675.7,286047004.1,N
1691474695.5,286047002.4,N
1691474715.4,286047000.2,N
1691474735.2,286046999.9,N
1691474755.0,286046998.9,N
1691474755.9,286046998.9,N
1691474775.8,286046997.5,N
1691474795.6,286046999.4,N
1691474815.4,286047000.9,N
1691474835.3,286047002.5,N
1691474855.1,286047004.8,N
1691474875.9,286047009.5,N
1691474895.7,286047006.6,N
1691474915.5,286047003.3,N
1691474935.4,286047004.3,N
1691474955.2,286047007.3,N
1691474975.0,286047001.3,N
1691474975.9,286047001.3,N
1691474995.8,286047004.5,N
1691475015.6,286047000.5,N
1691475035.5,286046998.6,N
1691475055.3,286046999.0,N
1691475075.1,286047000.0,N
1691475095.9,286047004.2,N
1691475115.7,286047009.2,N
1691475135.6,286047002.9,N
1691475155.4,286046997.9,N
1691475175.2,286046995.5,N
1691475195.1,286046999.3,N
1691475196.0,286046999.3,N
1691475215.8,286047007.2,N
1691475235.7,286047010.8,Y
1691475255.5,286047012.6,P
1691475275.3,286047017.0,P
1691475295.2,286047016.0,N
1691475315.0,286047014.6,N
1691475315.9,286047014.6,N
1691475335.8,286047011.3,N
1691475355.6,286047007.3,N
1691475375.4,286047008.3,N
1691475395.3,286047002.0,N
1691475415.1,286046998.2,N
1691475435.8,286046994.2,N
1691475455.7,286046993.4,N
1691475475.5,286046999.9,N
1691475495.4,286047003.4,N
1691475515.2,286047014.0,N
1691475535.0,286047004.8,N
1691475535.9,286047004.8,N
1691475555.8,286047005.7,N
1691475575.6,286047007.6,N
1691475595.5,286047006.2,N
1691475615.3,286047005.9,N
1691475635.1,286047014.3,N
1691475655.9,286047016.9,N
1691475675.7,286047012.2,N
1691475695.5,286047008.7,N
1691475715.4,286047015.6,N
1691475735.2,286047007.9,N
1691475755.0,286047010.2,N
1691475756.0,286047010.2,N
1691475775.8,286047003.2,N
1691475795.6,286046993.4,N
1691475815.5,286046992.7,N
1691475835.3,286046987.6,N
1691475855.1,286046987.1,N
1691475875.9,286046991.7,N
1691475895.7,286046983.8,N
1691475915.6,286046985.5,N
1691475935.4,286046991.1,N
1691475955.2,286046982.1,N
1691475975.1,286046987.7,N
1691475976.0,286046987.7,N
1691475995.8,286046982.2,N
1691476015.6,286046989.7,N
1691476035.5,286046987.2,N
1691476055.3,286046989.2,N
1691476075.1,286046986.8,N
1691476095.9,286046989.0,N
1691476115.7,286046982.1,N
1691476135.6,286046978.5,N
1691476155.4,286046976.3,N
1691476175.2,286046977.5,N
1691476195.1,286046976.6,N
1691476196.0,286046976.6,N
1691476215.8,286046975.0,N
1691476235.7,286046976.7,N
1691476255.5,286046969.5,N
1691476275.3,286046972.8,N
1691476295.2,286046975.4,N
1691476315.9,286046970.5,Y
1691476335.7,286046979.7,P
1691476385.6,286046971.4,E
1691476395.5,286046987.5,N
1691476415.4,286047008.6,P
1691476435.2,286047011.3,N
1691476455.0,286047012.9,N
1691476455.9,286047012.9,N
1691476475.8,286047012.1,N
1691476495.6,286047004.7,N
1691476515.5,286047002.0,N
1691476535.3,286046998.1,N
1691476555.1,286046999.0,N
1691476575.9,286047004.3,N
1691476595.7,286047003.7,N
1691476615.6,286047003.2,N
1691476635.4,286047007.1,N
1691476655.2,286047013.2,N
1691476675.1,286047013.1,N
1691476676.0,286047013.1,N
1691476695.8,286047011.2,N
1691476715.6,286047014.3,N
1691476735.5,286047017.0,N
1691476755.3,286047012.0,N
1691476775.2,286047014.2,N
1691476795.9,286047013.7,N
1691476815.7,286047009.7,N
1691476835.6,286047013.5,N
1691476855.4,286047011.3,N
1691476875.3,286047013.6,N
1691476895.1,286047015.7,N
1691476896.0,286047015.7,N
1691476915.8,286047013.0,N
1691476935.7,286047009.1,N
1691476955.5,286047003.1,N
1691476975.4,286047006.8,N
1691476995.2,286047001.4,N
1691477015.0,286047001.7,N
1691477015.9,286047001.7,N
1691477035.8,286047001.4,N
1691477055.6,286047002.8,N
1691477075.4,286047001.0,N
1691477095.3,286047001.2,N
1691477115.1,286047002.8,N
1691477165.9,286047003.9,E
1691477175.8,286047000.1,N
1691477195.6,286047000.0,P
1691477215.5,286046994.0,P
1691477235.3,286046991.1,Y
1691477255.2,286046997.9,P
1691477275.9,286046997.6,P
1691477295.7,286046996.5,P
1691477315.6,286047001.3,N
1691477335.4,286047005.4,Y
1691477355.2,286047002.7,P
1691477375.1,286046995.1,N
1691477376.0,286046995.1,N
1691477395.8,286046994.5,N
1691477415.7,286046995.5,N
1691477435.5,286047011.9,Y
1691477455.3,286046988.8,P
1691477475.2,286046991.4,N
1691477495.0,286046996.2,N
1691477495.9,286046996.2,N
1691477515.8,286046993.1,N
1691477535.6,286046990.3,Y
1691477555.4,286046994.2,P
1691477575.3,286046992.6,P
1691477595.1,286046988.5,P
1691477615.8,286046985.6,Y
1691477635.7,286046992.4,P
1691477655.5,286046992.6,P
1691477675.4,286046993.4,P
1691477695.2,286046995.1,Y
1691477715.0,286047004.5,P
1691477715.9,286047004.5,N
1691477735.8,286047004.7,N
1691477755.6,286046999.0,N
1691477775.4,286046997.3,N
1691477795.3,286047000.2,N
1691477815.1,286047002.9,N
1691477835.9,286047000.7,N
1691477855.7,286046995.3,N
1691477875.5,286046995.4,N
1691477895.4,286046997.9,N
1691477915.2,286046994.1,N
1691477935.0,286046995.0,N
1691477935.9,286046995.0,N
1691477955.8,286046994.4,N
1691477975.6,286046992.5,N
1691477995.5,286046987.4,Y
